Location: Eaton Estates
(41.3089°N, 82.0057°W)
Time: 07:18:04
(UTC+00:00)

USA 229 DEB - Pass Details

Date: 17 June 2021
Orbit: 955 x 1257 km, 63.4° (Epoch: 25 July)

Event Time Altitude Azimuth Distance (km) Brightness Sun altitude
Exits shadow 06:08:24 52° 163° (SSE) 1,221 3.6 -24.7°
Maximum altitude 06:09:37 61° 119° (ESE) 1,127 3.6 -24.6°
Drops below altitude 10° 06:16:12 10° 41° (NE) 2,869 6.8 -24.4°
Sets 06:18:57 0° 38° (NE) 3,871 7.7 -24.3°
